• En España
  • Lista de países
  • Para 7 días
  • Temperatura del agua
  • Mapa Satelital
  • El tiempo en el mapa
  • Informadores
  • user-avatar
    Iniciar sesión

    Tiempo cada hora Lutkovo

    Hoy, 20 Julio, Viernes

    Tiempo Temperatura Precipitaciones Viento Presión Humedad
    00:00 +18°C° 0 mm 2 mps 741 mmHg 93%
    01:00 +18°C° 0 mm 3 mps 741 mmHg 94%
    02:00 +18°C° 0 mm 3 mps 741 mmHg 96%
    03:00 +18°C° 0 mm 3 mps 741 mmHg 95%
    04:00 +18°C° 0 mm 3 mps 740 mmHg 95%
    05:00 +19°C° 0 mm 3 mps 740 mmHg 94%
    06:00 +19°C° 0,1 mm 3 mps 740 mmHg 94%
    07:00 +19°C° 0,1 mm 3 mps 740 mmHg 93%
    08:00 +20°C° 0,1 mm 3 mps 740 mmHg 92%
    09:00 +20°C° 0,2 mm 3 mps 740 mmHg 91%
    10:00 +20°C° 0,2 mm 3 mps 740 mmHg 90%
    11:00 +21°C° 0,2 mm 3 mps 740 mmHg 89%
    12:00 +21°C° 0,2 mm 3 mps 740 mmHg 86%
    13:00 +22°C° 0,2 mm 3 mps 740 mmHg 83%
    14:00 +24°C° 0,2 mm 3 mps 740 mmHg 81%
    15:00 +24°C° 0,2 mm 3 mps 740 mmHg 81%
    16:00 +24°C° 0,2 mm 3 mps 740 mmHg 81%
    17:00 +24°C° 0,2 mm 3 mps 739 mmHg 82%
    18:00 +22°C° 0,4 mm 3 mps 739 mmHg 86%
    19:00 +21°C° 0,4 mm 2 mps 739 mmHg 91%
    20:00 +20°C° 0,4 mm 2 mps 739 mmHg 96%
    21:00 +20°C° 0,8 mm 2 mps 739 mmHg 96%
    22:00 +20°C° 0,8 mm 2 mps 739 mmHg 97%
    23:00 +19°C° 0,8 mm 2 mps 739 mmHg 98%

    Mañana, 21 Julio, Sábado

    Tiempo Temperatura Precipitaciones Viento Presión Humedad
    00:00 +19°C° 0 mm 2 mps 739 mmHg 98%
    01:00 +19°C° 0 mm 2 mps 739 mmHg 98%
    02:00 +19°C° 0 mm 2 mps 739 mmHg 98%
    03:00 +19°C° 0,3 mm 3 mps 739 mmHg 98%
    04:00 +19°C° 0,3 mm 3 mps 739 mmHg 98%
    05:00 +20°C° 0,3 mm 3 mps 739 mmHg 98%
    06:00 +20°C° 0,2 mm 3 mps 740 mmHg 97%
    07:00 +20°C° 0,2 mm 3 mps 740 mmHg 97%
    08:00 +20°C° 0,2 mm 3 mps 740 mmHg 96%
    09:00 +21°C° 0 mm 3 mps 740 mmHg 94%
    10:00 +21°C° 0 mm 3 mps 740 mmHg 93%
    11:00 +22°C° 0 mm 3 mps 740 mmHg 91%
    12:00 +22°C° 0 mm 3 mps 740 mmHg 89%
    13:00 +22°C° 0 mm 3 mps 740 mmHg 87%
    14:00 +24°C° 0 mm 3 mps 740 mmHg 85%
    15:00 +24°C° 0 mm 3 mps 740 mmHg 84%
    16:00 +24°C° 0 mm 3 mps 740 mmHg 82%
    17:00 +24°C° 0 mm 3 mps 740 mmHg 81%
    18:00 +24°C° 0 mm 3 mps 740 mmHg 85%
    19:00 +22°C° 0 mm 3 mps 740 mmHg 88%
    20:00 +23°C° 0 mm 2 mps 740 mmHg 91%
    21:00 +21°C° 0,1 mm 2 mps 740 mmHg 93%
    22:00 +20°C° 0,1 mm 3 mps 740 mmHg 95%
    23:00 +20°C° 0,1 mm 3 mps 740 mmHg 97%

    Pasado mañana, 22 Julio, Domingo

    Tiempo Temperatura Precipitaciones Viento Presión Humedad
    00:00 +20°C° 0 mm 3 mps 740 mmHg 97%
    01:00 +20°C° 0 mm 3 mps 740 mmHg 97%
    02:00 +20°C° 0 mm 3 mps 740 mmHg 96%
    03:00 +19°C° 0 mm 3 mps 740 mmHg 96%
    04:00 +19°C° 0 mm 3 mps 740 mmHg 95%
    05:00 +19°C° 0 mm 3 mps 740 mmHg 95%
    06:00 +19°C° 0 mm 3 mps 741 mmHg 94%
    07:00 +19°C° 0 mm 3 mps 741 mmHg 93%
    08:00 +19°C° 0 mm 3 mps 741 mmHg 92%
    09:00 +19°C° 0 mm 3 mps 741 mmHg 91%
    10:00 +19°C° 0 mm 3 mps 741 mmHg 89%
    11:00 +20°C° 0 mm 3 mps 741 mmHg 87%
    12:00 +20°C° 0 mm 3 mps 741 mmHg 86%
    13:00 +21°C° 0 mm 3 mps 741 mmHg 85%
    14:00 +21°C° 0 mm 3 mps 741 mmHg 84%
    15:00 +21°C° 0 mm 3 mps 741 mmHg 86%
    16:00 +21°C° 0 mm 3 mps 740 mmHg 87%
    17:00 +21°C° 0 mm 3 mps 740 mmHg 89%
    18:00 +21°C° 0 mm 3 mps 740 mmHg 90%
    19:00 +20°C° 0 mm 3 mps 741 mmHg 92%
    20:00 +20°C° 0 mm 3 mps 741 mmHg 93%
    21:00 +20°C° 0,1 mm 3 mps 741 mmHg 94%
    22:00 +20°C° 0,1 mm 3 mps 741 mmHg 95%
    23:00 +19°C° 0,1 mm 3 mps 741 mmHg 96%

    23 Julio, Lunes

    Tiempo Temperatura Precipitaciones Viento Presión Humedad
    00:00 +19°C° 0,1 mm 3 mps 741 mmHg 96%
    01:00 +19°C° 0,1 mm 3 mps 741 mmHg 96%
    02:00 +19°C° 0,1 mm 3 mps 740 mmHg 96%
    03:00 +19°C° 0 mm 3 mps 740 mmHg 96%
    04:00 +19°C° 0 mm 3 mps 740 mmHg 96%
    05:00 +19°C° 0 mm 3 mps 740 mmHg 96%
    06:00 +19°C° 0 mm 3 mps 741 mmHg 94%
    07:00 +19°C° 0 mm 3 mps 741 mmHg 93%
    08:00 +20°C° 0 mm 3 mps 741 mmHg 91%
    09:00 +20°C° 0,1 mm 3 mps 741 mmHg 90%
    10:00 +20°C° 0,1 mm 3 mps 741 mmHg 89%
    11:00 +21°C° 0,1 mm 3 mps 741 mmHg 87%
    12:00 +21°C° 0,1 mm 3 mps 741 mmHg 85%
    13:00 +22°C° 0,1 mm 3 mps 741 mmHg 83%
    14:00 +22°C° 0,1 mm 3 mps 741 mmHg 81%
    15:00 +22°C° 0,1 mm 3 mps 741 mmHg 83%
    16:00 +22°C° 0,1 mm 3 mps 741 mmHg 84%
    17:00 +22°C° 0,1 mm 3 mps 741 mmHg 86%
    18:00 +21°C° 0 mm 3 mps 741 mmHg 88%
    19:00 +21°C° 0 mm 3 mps 741 mmHg 90%
    20:00 +20°C° 0 mm 2 mps 741 mmHg 93%
    21:00 +19°C° 0 mm 2 mps 741 mmHg 95%
    22:00 +19°C° 0 mm 2 mps 741 mmHg 96%
    23:00 +18°C° 0 mm 2 mps 741 mmHg 98%

    24 Julio, Martes

    Tiempo Temperatura Precipitaciones Viento Presión Humedad
    00:00 +18°C° 0 mm 2 mps 741 mmHg 98%
    01:00 +18°C° 0 mm 2 mps 741 mmHg 98%
    02:00 +18°C° 0 mm 2 mps 741 mmHg 98%
    03:00 +19°C° 0 mm 2 mps 741 mmHg 98%
    04:00 +19°C° 0 mm 2 mps 741 mmHg 97%
    05:00 +19°C° 0 mm 2 mps 741 mmHg 97%
    06:00 +20°C° 0 mm 2 mps 742 mmHg 95%
    07:00 +20°C° 0 mm 3 mps 742 mmHg 94%
    08:00 +20°C° 0 mm 3 mps 742 mmHg 93%
    09:00 +20°C° 0 mm 3 mps 742 mmHg 92%
    10:00 +21°C° 0 mm 2 mps 742 mmHg 91%
    11:00 +21°C° 0 mm 2 mps 743 mmHg 90%
    12:00 +23°C° 0,1 mm 2 mps 743 mmHg 87%
    13:00 +24°C° 0,1 mm 3 mps 743 mmHg 84%
    14:00 +25°C° 0,1 mm 3 mps 743 mmHg 80%
    15:00 +25°C° 0,2 mm 3 mps 743 mmHg 81%
    16:00 +25°C° 0,2 mm 3 mps 743 mmHg 81%
    17:00 +25°C° 0,2 mm 3 mps 743 mmHg 82%
    18:00 +24°C° 0,1 mm 3 mps 743 mmHg 86%
    19:00 +23°C° 0,1 mm 2 mps 743 mmHg 89%
    20:00 +21°C° 0,1 mm 2 mps 743 mmHg 93%
    21:00 +21°C° 0 mm 2 mps 744 mmHg 95%
    22:00 +20°C° 0 mm 2 mps 744 mmHg 96%
    23:00 +20°C° 0 mm 2 mps 744 mmHg 98%

    25 Julio, Miércoles

    Tiempo Temperatura Precipitaciones Viento Presión Humedad
    00:00 +19°C° 0 mm 2 mps 744 mmHg 98%
    01:00 +19°C° 0 mm 2 mps 744 mmHg 98%
    02:00 +19°C° 0 mm 2 mps 744 mmHg 98%
    03:00 +19°C° 0 mm 2 mps 744 mmHg 98%
    04:00 +19°C° 0 mm 2 mps 745 mmHg 97%
    05:00 +19°C° 0 mm 2 mps 745 mmHg 97%
    06:00 +21°C° 0 mm 2 mps 745 mmHg 91%
    07:00 +23°C° 0 mm 2 mps 745 mmHg 86%
    08:00 +25°C° 0 mm 3 mps 745 mmHg 81%
    09:00 +26°C° 0,2 mm 3 mps 745 mmHg 76%
    10:00 +27°C° 0,2 mm 3 mps 745 mmHg 72%
    11:00 +28°C° 0,2 mm 3 mps 745 mmHg 68%
    12:00 +28°C° 0,6 mm 3 mps 745 mmHg 68%
    13:00 +28°C° 0,6 mm 3 mps 745 mmHg 69%
    14:00 +29°C° 0,6 mm 3 mps 745 mmHg 69%
    15:00 +28°C° 0,5 mm 3 mps 745 mmHg 72%
    16:00 +28°C° 0,5 mm 2 mps 746 mmHg 76%
    17:00 +27°C° 0,5 mm 2 mps 746 mmHg 79%
    18:00 +26°C° 0,2 mm 2 mps 746 mmHg 84%
    19:00 +24°C° 0,2 mm 2 mps 746 mmHg 88%
    20:00 +23°C° 0,2 mm 2 mps 746 mmHg 93%
    21:00 +22°C° 0,2 mm 1 mps 746 mmHg 94%
    22:00 +21°C° 0,2 mm 1 mps 746 mmHg 94%
    23:00 +20°C° 0,2 mm 1 mps 747 mmHg 95%
    Mostrar más